User: anonymous   Login
Location: Observatoire
(46.1952°N, 5.3391°E)
Time: 06:18:41
(UTC+02:00)
Language:

DIWATA 2B (PO-101) - Orbit

View from above orbital plane
View from above orbital plane
View from above satellite
View from above satellite

Ground track
Ground track

The orbit data is extracted from the following two-line orbital elements,

1 43678U 18084H   24106.83342252  .00003447  00000-0  32158-3 0  9991
2 43678  98.0635 263.0396 0008361 232.0442 128.0022 14.94887451297605
Epoch (UTC): 15 April 2024 20:00:07
Eccentricity: 0.0008361
inclination: 98.0635°
perigee height: 577 km
apogee height: 588 km
right ascension of ascending node: 263.0396°
argument of perigee: 232.0442°
revolutions per day: 14.94887451
mean anomaly at epoch: 128.0022°
orbit number at epoch: 29760

The dashed part of the orbit path shows where the satellite is in the earth's shadow,  

DLR